Overview Statistics Trail Chart Weather Telemetry Raw packets
 

This is the latest recevied weather packets stored in our database for station/object W5ALL-WX. If no packets are shown the sender has not sent any weather packets the latest 10 day(s).

<< 62 63 64 65 66 67 68 >>
Time Temp. Humidity Pressure Rain* Wind** Luminosity Snow
1777559578 20° C 14% 1013.3 hPa 0 mm - - -
1777559278 20° C 15% 1013.5 hPa 0 mm - - -
1777558978 19.44° C 16% 1013.8 hPa 0 mm - - -
1777558678 19.44° C 16% 1013.4 hPa 0 mm - - -
1777558377 20° C 19% 1012.9 hPa 0 mm - - -
1777558077 20° C 19% 1012.7 hPa 0 mm - - -
1777557777 19.44° C 21% 1012.6 hPa 0 mm - - -
1777557478 18.89° C 19% 1012.4 hPa 0 mm - - -
1777557177 18.89° C 20% 1012.2 hPa 0 mm - - -
1777556877 18.33° C 23% 1012.6 hPa 0 mm - - -
1777556577 17.78° C 21% 1012.7 hPa 0 mm - - -
1777556278 17.78° C 21% 1012.8 hPa 0 mm - - -
1777555977 17.22° C 22% 1012.7 hPa 0 mm - - -
1777555677 17.22° C 21% 1012.8 hPa 0 mm - - -
1777555377 17.22° C 20% 1012.9 hPa 0 mm - - -
1777555077 17.22° C 19% 1013.2 hPa 0 mm - - -
1777554777 17.22° C 19% 1012.9 hPa 0 mm - - -
1777554477 17.22° C 19% 1012.8 hPa 0 mm - - -
1777554177 17.22° C 18% 1012.7 hPa 0 mm - - -
1777553877 17.22° C 18% 1012.7 hPa 0 mm - - -
1777553577 17.22° C 17% 1012.7 hPa 0 mm - - -
1777553277 17.22° C 16% 1012.7 hPa 0 mm - - -
1777552977 17.22° C 16% 1012.7 hPa 0 mm - - -
1777552677 17.22° C 16% 1012.7 hPa 0 mm - - -
1777552377 17.22° C 17% 1012.4 hPa 0 mm - - -

* Rain latest hour (hover to see other rain measurements)
** Current wind speed in m/s (hover to see current wind gust speed)